owner,sensor,date,latitude,longitude,vertical_datum,wind_speed,wind_to_direction,wind_speed_of_gust,qcFlag 
LOOP,urn:ioos:station:wmo:lopl1:1,2015-11-01T00:00:00Z,28.8850,-90.0250,10.0,7.1,-9999.0,7.6,'11111222,99999999,11111222' 
LOOP,urn:ioos:station:wmo:lopl1:1,2015-11-01T00:15:00Z,28.8850,-90.0250,10.0,6.7,-9999.0,7.4,'11111222,99999999,11111222' 
LOOP,urn:ioos:station:wmo:lopl1:1,2015-11-01T00:30:00Z,28.8850,-90.0250,10.0,6.8,-9999.0,7.2,'11111222,99999999,11111222' 
LOOP,urn:ioos:station:wmo:lopl1:1,2015-11-01T00:45:00Z,28.8850,-90.0250,10.0,7.2,-9999.0,8.2,'11111222,99999999,11111222' 
LOOP,urn:ioos:station:wmo:lopl1:1,2015-11-01T01:00:00Z,28.8850,-90.0250,10.0,6.9,-9999.0,7.9,'11111222,99999999,11111222' 
LOOP,urn:ioos:station:wmo:lopl1:1,2015-11-01T01:15:00Z,28.8850,-90.0250,10.0,6.8,-9999.0,7.4,'11111222,99999999,11111222' 
LOOP,urn:ioos:station:wmo:lopl1:1,2015-11-01T01:30:00Z,28.8850,-90.0250,10.0,5.7,-9999.0,6.2,'11111222,99999999,11111222' 
LOOP,urn:ioos:station:wmo:lopl1:1,2015-11-01T01:45:00Z,28.8850,-90.0250,10.0,4.2,165.0,5.8,'11111222,11111222,11111222' 
LOOP,urn:ioos:station:wmo:lopl1:1,2015-11-01T02:00:00Z,28.8850,-90.0250,10.0,8.8,18.0,11.6,'11111222,11111222,11111222' 
LOOP,urn:ioos:station:wmo:lopl1:1,2015-11-01T02:15:00Z,28.8850,-90.0250,10.0,15.4,20.0,17.0,'11111222,11111222,11111222' 
LOOP,urn:ioos:station:wmo:lopl1:1,2015-11-01T02:30:00Z,28.8850,-90.0250,10.0,13.9,21.0,15.7,'11111222,11111222,11111222' 
LOOP,urn:ioos:station:wmo:lopl1:1,2015-11-01T02:45:00Z,28.8850,-90.0250,10.0,12.4,20.0,15.5,'11111222,11111222,11111222' 
LOOP,urn:ioos:station:wmo:lopl1:1,2015-11-01T03:00:00Z,28.8850,-90.0250,10.0,12.6,21.0,15.0,'11111222,11111222,11111222' 
LOOP,urn:ioos:station:wmo:lopl1:1,2015-11-01T03:15:00Z,28.8850,-90.0250,10.0,12.6,21.0,15.3,'11111222,11111222,11111222' 
LOOP,urn:ioos:station:wmo:lopl1:1,2015-11-01T03:30:00Z,28.8850,-90.0250,10.0,11.4,24.0,14.3,'11111222,11111222,11111222' 
LOOP,urn:ioos:station:wmo:lopl1:1,2015-11-01T03:45:00Z,28.8850,-90.0250,10.0,11.1,30.0,13.3,'11111222,11111222,11111222' 
LOOP,urn:ioos:station:wmo:lopl1:1,2015-11-01T04:00:00Z,28.8850,-90.0250,10.0,9.1,28.0,11.0,'11111222,11111222,11111222' 
LOOP,urn:ioos:station:wmo:lopl1:1,2015-11-01T04:15:00Z,28.8850,-90.0250,10.0,9.8,19.0,11.6,'11111222,11111222,11111222' 
LOOP,urn:ioos:station:wmo:lopl1:1,2015-11-01T04:30:00Z,28.8850,-90.0250,10.0,11.4,24.0,11.4,'11111222,11111222,11111222' 
LOOP,urn:ioos:station:wmo:lopl1:1,2015-11-01T04:45:00Z,28.8850,-90.0250,10.0,6.6,34.0,9.1,'11111222,11111222,11111222' 
LOOP,urn:ioos:station:wmo:lopl1:1,2015-11-01T05:05:00Z,28.8850,-90.0250,10.0,7.4,41.0,9.6,'11111222,11111222,11111222' 
LOOP,urn:ioos:station:wmo:lopl1:1,2015-11-01T05:20:00Z,28.8850,-90.0250,10.0,8.0,29.0,10.4,'11111222,11111222,11111222' 
LOOP,urn:ioos:station:wmo:lopl1:1,2015-11-01T05:35:00Z,28.8850,-90.0250,10.0,7.6,48.0,8.9,'11111222,11111222,11111222' 
LOOP,urn:ioos:station:wmo:lopl1:1,2015-11-01T05:50:00Z,28.8850,-90.0250,10.0,8.5,31.0,9.9,'11111222,11111222,11111222' 
LOOP,urn:ioos:station:wmo:lopl1:1,2015-11-01T06:05:00Z,28.8850,-90.0250,10.0,9.8,27.0,11.3,'11111222,11111222,11111222' 
LOOP,urn:ioos:station:wmo:lopl1:1,2015-11-01T06:20:00Z,28.8850,-90.0250,10.0,9.1,33.0,11.1,'11111222,11111222,11111222' 
LOOP,urn:ioos:station:wmo:lopl1:1,2015-11-01T06:35:00Z,28.8850,-90.0250,10.0,8.0,26.0,10.4,'11111222,11111222,11111222' 
LOOP,urn:ioos:station:wmo:lopl1:1,2015-11-01T06:50:00Z,28.8850,-90.0250,10.0,8.6,28.0,11.5,'11111222,11111222,11111222' 
LOOP,urn:ioos:station:wmo:lopl1:1,2015-11-01T07:05:00Z,28.8850,-90.0250,10.0,9.8,29.0,11.7,'11111222,11111222,11111222' 
LOOP,urn:ioos:station:wmo:lopl1:1,2015-11-01T07:20:00Z,28.8850,-90.0250,10.0,10.8,17.0,12.1,'11111222,11111222,11111222' 
LOOP,urn:ioos:station:wmo:lopl1:1,2015-11-01T07:35:00Z,28.8850,-90.0250,10.0,10.1,13.0,11.9,'11111222,11111222,11111222' 
LOOP,urn:ioos:station:wmo:lopl1:1,2015-11-01T07:50:00Z,28.8850,-90.0250,10.0,11.0,6.0,12.5,'11111222,11111222,11111222' 
LOOP,urn:ioos:station:wmo:lopl1:1,2015-11-01T08:05:00Z,28.8850,-90.0250,10.0,11.5,8.0,13.0,'11111222,11111222,11111222' 
LOOP,urn:ioos:station:wmo:lopl1:1,2015-11-01T08:20:00Z,28.8850,-90.0250,10.0,10.5,11.0,11.7,'11111222,11111222,11111222' 
LOOP,urn:ioos:station:wmo:lopl1:1,2015-11-01T08:35:00Z,28.8850,-90.0250,10.0,10.9,1.0,12.1,'11111222,11111222,11111222' 
LOOP,urn:ioos:station:wmo:lopl1:1,2015-11-01T08:55:00Z,28.8850,-90.0250,10.0,12.6,8.0,14.1,'11111222,11111222,11111222' 
LOOP,urn:ioos:station:wmo:lopl1:1,2015-11-01T09:10:00Z,28.8850,-90.0250,10.0,12.2,11.0,13.8,'11111222,11111222,11111222' 
LOOP,urn:ioos:station:wmo:lopl1:1,2015-11-01T09:25:00Z,28.8850,-90.0250,10.0,12.9,8.0,15.5,'11111222,11111222,11111222' 
LOOP,urn:ioos:station:wmo:lopl1:1,2015-11-01T09:40:00Z,28.8850,-90.0250,10.0,15.4,12.0,17.1,'11111222,11111222,11111222' 
LOOP,urn:ioos:station:wmo:lopl1:1,2015-11-01T09:55:00Z,28.8850,-90.0250,10.0,17.2,10.0,18.7,'11111222,11111222,11111222' 
LOOP,urn:ioos:station:wmo:lopl1:1,2015-11-01T10:10:00Z,28.8850,-90.0250,10.0,17.4,7.0,19.4,'11111222,11111222,11111222' 
LOOP,urn:ioos:station:wmo:lopl1:1,2015-11-01T10:25:00Z,28.8850,-90.0250,10.0,17.9,8.0,19.8,'11111222,11111222,11111222' 
LOOP,urn:ioos:station:wmo:lopl1:1,2015-11-01T10:40:00Z,28.8850,-90.0250,10.0,19.0,10.0,20.7,'11111222,11111222,11111222' 
LOOP,urn:ioos:station:wmo:lopl1:1,2015-11-01T10:55:00Z,28.8850,-90.0250,10.0,18.0,11.0,21.3,'11111222,11111222,11111222' 
LOOP,urn:ioos:station:wmo:lopl1:1,2015-11-01T11:10:00Z,28.8850,-90.0250,10.0,16.5,12.0,18.4,'11111222,11111222,11111222' 
LOOP,urn:ioos:station:wmo:lopl1:1,2015-11-01T11:25:00Z,28.8850,-90.0250,10.0,16.2,13.0,19.0,'11111222,11111222,11111222' 
LOOP,urn:ioos:station:wmo:lopl1:1,2015-11-01T11:40:00Z,28.8850,-90.0250,10.0,17.3,15.0,19.2,'11111222,11111222,11111222' 
LOOP,urn:ioos:station:wmo:lopl1:1,2015-11-01T11:55:00Z,28.8850,-90.0250,10.0,16.4,21.0,19.0,'11111222,11111222,11111222' 
LOOP,urn:ioos:station:wmo:lopl1:1,2015-11-01T12:10:00Z,28.8850,-90.0250,10.0,16.0,25.0,20.5,'11111222,11111222,11111222' 
LOOP,urn:ioos:station:wmo:lopl1:1,2015-11-01T12:25:00Z,28.8850,-90.0250,10.0,16.0,23.0,18.3,'11111222,11111222,11111222' 
LOOP,urn:ioos:station:wmo:lopl1:1,2015-11-01T12:40:00Z,28.8850,-90.0250,10.0,15.0,20.0,17.7,'11111222,11111222,11111222' 
LOOP,urn:ioos:station:wmo:lopl1:1,2015-11-01T12:55:00Z,28.8850,-90.0250,10.0,16.3,22.0,18.6,'11111222,11111222,11111222' 
LOOP,urn:ioos:station:wmo:lopl1:1,2015-11-01T13:10:00Z,28.8850,-90.0250,10.0,16.2,18.0,18.9,'11111222,11111222,11111222' 
LOOP,urn:ioos:station:wmo:lopl1:1,2015-11-01T13:25:00Z,28.8850,-90.0250,10.0,18.0,16.0,19.5,'11111222,11111222,11111222' 
LOOP,urn:ioos:station:wmo:lopl1:1,2015-11-01T13:40:00Z,28.8850,-90.0250,10.0,18.5,15.0,20.5,'11111222,11111222,11111222' 
LOOP,urn:ioos:station:wmo:lopl1:1,2015-11-01T13:55:00Z,28.8850,-90.0250,10.0,17.2,21.0,19.5,'11111222,11111222,11111222' 
LOOP,urn:ioos:station:wmo:lopl1:1,2015-11-01T14:10:00Z,28.8850,-90.0250,10.0,16.4,16.0,18.2,'11111222,11111222,11111222' 
LOOP,urn:ioos:station:wmo:lopl1:1,2015-11-01T14:25:00Z,28.8850,-90.0250,10.0,15.0,17.0,18.4,'11111222,11111222,11111222' 
LOOP,urn:ioos:station:wmo:lopl1:1,2015-11-01T14:40:00Z,28.8850,-90.0250,10.0,15.8,16.0,17.9,'11111222,11111222,11111222' 
LOOP,urn:ioos:station:wmo:lopl1:1,2015-11-01T14:55:00Z,28.8850,-90.0250,10.0,14.6,20.0,17.2,'11111222,11111222,11111222' 
LOOP,urn:ioos:station:wmo:lopl1:1,2015-11-01T15:10:00Z,28.8850,-90.0250,10.0,14.0,27.0,15.4,'11111222,11111222,11111222' 
LOOP,urn:ioos:station:wmo:lopl1:1,2015-11-01T15:25:00Z,28.8850,-90.0250,10.0,16.9,24.0,19.1,'11111222,11111222,11111222' 
LOOP,urn:ioos:station:wmo:lopl1:1,2015-11-01T15:40:00Z,28.8850,-90.0250,10.0,14.8,29.0,17.9,'11111222,11111222,11111222' 
LOOP,urn:ioos:station:wmo:lopl1:1,2015-11-01T15:55:00Z,28.8850,-90.0250,10.0,14.3,32.0,18.6,'11111222,11111222,11111222' 
LOOP,urn:ioos:station:wmo:lopl1:1,2015-11-01T16:10:00Z,28.8850,-90.0250,10.0,15.2,27.0,17.6,'11111222,11111222,11111222' 
LOOP,urn:ioos:station:wmo:lopl1:1,2015-11-01T16:25:00Z,28.8850,-90.0250,10.0,13.1,28.0,16.3,'11111222,11111222,11111222' 
LOOP,urn:ioos:station:wmo:lopl1:1,2015-11-01T16:40:00Z,28.8850,-90.0250,10.0,13.0,34.0,16.5,'11111222,11111222,11111222' 
LOOP,urn:ioos:station:wmo:lopl1:1,2015-11-01T16:55:00Z,28.8850,-90.0250,10.0,12.1,29.0,15.3,'11111222,11111222,11111222' 
LOOP,urn:ioos:station:wmo:lopl1:1,2015-11-01T17:10:00Z,28.8850,-90.0250,10.0,10.7,29.0,14.7,'11111222,11111222,11111222' 
LOOP,urn:ioos:station:wmo:lopl1:1,2015-11-01T17:30:00Z,28.8850,-90.0250,10.0,11.5,37.0,16.0,'11111222,11111222,11111222' 
LOOP,urn:ioos:station:wmo:lopl1:1,2015-11-01T17:45:00Z,28.8850,-90.0250,10.0,11.6,27.0,14.2,'11111222,11111222,11111222' 
LOOP,urn:ioos:station:wmo:lopl1:1,2015-11-01T18:00:00Z,28.8850,-90.0250,10.0,10.5,26.0,13.5,'11111222,11111222,11111222' 
LOOP,urn:ioos:station:wmo:lopl1:1,2015-11-01T18:15:00Z,28.8850,-90.0250,10.0,8.8,31.0,11.7,'11111222,11111222,11111222' 
LOOP,urn:ioos:station:wmo:lopl1:1,2015-11-01T18:30:00Z,28.8850,-90.0250,10.0,8.6,52.0,12.0,'11111222,11111222,11111222' 
LOOP,urn:ioos:station:wmo:lopl1:1,2015-11-01T18:45:00Z,28.8850,-90.0250,10.0,8.9,64.0,12.1,'11111222,11111222,11111222' 
LOOP,urn:ioos:station:wmo:lopl1:1,2015-11-01T19:00:00Z,28.8850,-90.0250,10.0,9.8,65.0,13.0,'11111222,11111222,11111222' 
LOOP,urn:ioos:station:wmo:lopl1:1,2015-11-01T19:15:00Z,28.8850,-90.0250,10.0,10.7,61.0,14.0,'11111222,11111222,11111222' 
LOOP,urn:ioos:station:wmo:lopl1:1,2015-11-01T19:30:00Z,28.8850,-90.0250,10.0,10.0,49.0,12.4,'11111222,11111222,11111222' 
LOOP,urn:ioos:station:wmo:lopl1:1,2015-11-01T19:45:00Z,28.8850,-90.0250,10.0,9.7,56.0,14.6,'11111222,11111222,11111222' 
LOOP,urn:ioos:station:wmo:lopl1:1,2015-11-01T20:00:00Z,28.8850,-90.0250,10.0,10.2,64.0,13.6,'11111222,11111222,11111222' 
LOOP,urn:ioos:station:wmo:lopl1:1,2015-11-01T20:15:00Z,28.8850,-90.0250,10.0,10.5,68.0,12.8,'11111222,11111222,11111222' 
LOOP,urn:ioos:station:wmo:lopl1:1,2015-11-01T20:30:00Z,28.8850,-90.0250,10.0,9.3,63.0,11.8,'11111222,11111222,11111222' 
LOOP,urn:ioos:station:wmo:lopl1:1,2015-11-01T20:45:00Z,28.8850,-90.0250,10.0,9.4,45.0,13.6,'11111222,11111222,11111222' 
LOOP,urn:ioos:station:wmo:lopl1:1,2015-11-01T21:00:00Z,28.8850,-90.0250,10.0,10.1,62.0,13.4,'11111222,11111222,11111222' 
LOOP,urn:ioos:station:wmo:lopl1:1,2015-11-01T21:15:00Z,28.8850,-90.0250,10.0,9.3,48.0,11.5,'11111222,11111222,11111222' 
LOOP,urn:ioos:station:wmo:lopl1:1,2015-11-01T21:30:00Z,28.8850,-90.0250,10.0,8.0,59.0,11.3,'11111222,11111222,11111222' 
LOOP,urn:ioos:station:wmo:lopl1:1,2015-11-01T21:45:00Z,28.8850,-90.0250,10.0,10.5,66.0,11.9,'11111222,11111222,11111222' 
LOOP,urn:ioos:station:wmo:lopl1:1,2015-11-01T22:00:00Z,28.8850,-90.0250,10.0,9.4,71.0,11.3,'11111222,11111222,11111222' 
LOOP,urn:ioos:station:wmo:lopl1:1,2015-11-01T22:15:00Z,28.8850,-90.0250,10.0,7.4,81.0,8.7,'11111222,11111222,11111222' 
LOOP,urn:ioos:station:wmo:lopl1:1,2015-11-01T22:30:00Z,28.8850,-90.0250,10.0,7.8,76.0,10.0,'11111222,11111222,11111222' 
LOOP,urn:ioos:station:wmo:lopl1:1,2015-11-01T22:45:00Z,28.8850,-90.0250,10.0,7.8,69.0,9.9,'11111222,11111222,11111222' 
LOOP,urn:ioos:station:wmo:lopl1:1,2015-11-01T23:00:00Z,28.8850,-90.0250,10.0,8.5,69.0,9.5,'11111222,11111222,11111222' 
LOOP,urn:ioos:station:wmo:lopl1:1,2015-11-01T23:25:00Z,28.8850,-90.0250,10.0,7.5,84.0,8.6,'11111222,11111222,11111222' 
LOOP,urn:ioos:station:wmo:lopl1:1,2015-11-01T23:45:00Z,28.8850,-90.0250,10.0,6.9,77.0,8.1,'11111222,11111222,11111222' 
LOOP,urn:ioos:station:wmo:lopl1:1,2015-11-02T00:00:00Z,28.8850,-90.0250,10.0,6.8,83.0,7.6,'11111222,11111222,11111222' 
LOOP,urn:ioos:station:wmo:lopl1:1,2015-11-02T00:15:00Z,28.8850,-90.0250,10.0,6.0,80.0,6.6,'11111222,11111222,11111222' 
LOOP,urn:ioos:station:wmo:lopl1:1,2015-11-02T00:30:00Z,28.8850,-90.0250,10.0,5.5,89.0,6.3,'11111222,11111222,11111222' 
LOOP,urn:ioos:station:wmo:lopl1:1,2015-11-02T00:45:00Z,28.8850,-90.0250,10.0,5.5,101.0,6.1,'11111222,11111222,11111222' 
LOOP,urn:ioos:station:wmo:lopl1:1,2015-11-02T01:00:00Z,28.8850,-90.0250,10.0,5.5,101.0,6.0,'11111222,11111222,11111222' 
LOOP,urn:ioos:station:wmo:lopl1:1,2015-11-02T01:15:00Z,28.8850,-90.0250,10.0,4.2,88.0,4.9,'11111222,11111222,11111222' 
LOOP,urn:ioos:station:wmo:lopl1:1,2015-11-02T01:30:00Z,28.8850,-90.0250,10.0,3.1,93.0,3.6,'11111222,11111222,11111222' 
LOOP,urn:ioos:station:wmo:lopl1:1,2015-11-02T01:40:00Z,28.8850,-90.0250,10.0,2.7,83.0,3.3,'11111222,11111222,11111222' 
LOOP,urn:ioos:station:wmo:lopl1:1,2015-11-02T01:55:00Z,28.8850,-90.0250,10.0,2.7,100.0,3.2,'11111222,11111222,11111222' 
LOOP,urn:ioos:station:wmo:lopl1:1,2015-11-02T02:10:00Z,28.8850,-90.0250,10.0,3.5,128.0,4.0,'11111222,11111222,11111222' 
LOOP,urn:ioos:station:wmo:lopl1:1,2015-11-02T02:25:00Z,28.8850,-90.0250,10.0,2.9,108.0,3.6,'11111222,11111222,11111222' 
LOOP,urn:ioos:station:wmo:lopl1:1,2015-11-02T02:40:00Z,28.8850,-90.0250,10.0,2.9,112.0,3.4,'11111222,11111222,11111222' 
LOOP,urn:ioos:station:wmo:lopl1:1,2015-11-02T02:55:00Z,28.8850,-90.0250,10.0,2.3,114.0,2.7,'11111222,11111222,11111222' 
LOOP,urn:ioos:station:wmo:lopl1:1,2015-11-02T03:10:00Z,28.8850,-90.0250,10.0,2.2,133.0,2.6,'11111222,11111222,11111222' 
LOOP,urn:ioos:station:wmo:lopl1:1,2015-11-02T03:25:00Z,28.8850,-90.0250,10.0,2.8,121.0,3.2,'11111222,11111222,11111222' 
LOOP,urn:ioos:station:wmo:lopl1:1,2015-11-02T03:40:00Z,28.8850,-90.0250,10.0,3.6,-9999.0,4.5,'11111222,99999999,11111222' 
LOOP,urn:ioos:station:wmo:lopl1:1,2015-11-02T03:55:00Z,28.8850,-90.0250,10.0,3.2,-9999.0,4.1,'11111222,99999999,11111222' 
LOOP,urn:ioos:station:wmo:lopl1:1,2015-11-02T04:10:00Z,28.8850,-90.0250,10.0,3.0,163.0,3.6,'11111222,11111222,11111222' 
LOOP,urn:ioos:station:wmo:lopl1:1,2015-11-02T04:25:00Z,28.8850,-90.0250,10.0,3.3,158.0,4.0,'11111222,11111222,11111222' 
LOOP,urn:ioos:station:wmo:lopl1:1,2015-11-02T04:40:00Z,28.8850,-90.0250,10.0,3.2,162.0,3.9,'11111222,11111222,11111222' 
LOOP,urn:ioos:station:wmo:lopl1:1,2015-11-02T04:55:00Z,28.8850,-90.0250,10.0,3.6,163.0,4.0,'11111222,11111222,11111222' 
LOOP,urn:ioos:station:wmo:lopl1:1,2015-11-02T05:15:00Z,28.8850,-90.0250,10.0,3.6,164.0,4.1,'11111222,11111222,11111222' 
LOOP,urn:ioos:station:wmo:lopl1:1,2015-11-02T05:30:00Z,28.8850,-90.0250,10.0,3.7,170.0,4.3,'11111222,11111222,11111222' 
LOOP,urn:ioos:station:wmo:lopl1:1,2015-11-02T05:45:00Z,28.8850,-90.0250,10.0,3.4,-9999.0,3.9,'11111222,99999999,11111222' 
LOOP,urn:ioos:station:wmo:lopl1:1,2015-11-02T06:00:00Z,28.8850,-90.0250,10.0,3.9,-9999.0,4.8,'11111222,99999999,11111222' 
LOOP,urn:ioos:station:wmo:lopl1:1,2015-11-02T06:15:00Z,28.8850,-90.0250,10.0,4.3,-9999.0,4.9,'11111222,99999999,11111222' 
LOOP,urn:ioos:station:wmo:lopl1:1,2015-11-02T06:30:00Z,28.8850,-90.0250,10.0,3.8,-9999.0,4.3,'11111222,99999999,11111222' 
LOOP,urn:ioos:station:wmo:lopl1:1,2015-11-02T06:45:00Z,28.8850,-90.0250,10.0,4.8,-9999.0,6.0,'11111222,99999999,11111222' 
LOOP,urn:ioos:station:wmo:lopl1:1,2015-11-02T07:00:00Z,28.8850,-90.0250,10.0,9.0,-9999.0,11.0,'11111222,99999999,11111222' 
LOOP,urn:ioos:station:wmo:lopl1:1,2015-11-02T07:15:00Z,28.8850,-90.0250,10.0,10.2,-9999.0,11.6,'11111222,99999999,11111222' 
LOOP,urn:ioos:station:wmo:lopl1:1,2015-11-02T07:30:00Z,28.8850,-90.0250,10.0,8.0,261.0,10.3,'11111222,11111222,11111222' 
LOOP,urn:ioos:station:wmo:lopl1:1,2015-11-02T07:45:00Z,28.8850,-90.0250,10.0,9.2,270.0,12.0,'11111222,11111222,11111222' 
LOOP,urn:ioos:station:wmo:lopl1:1,2015-11-02T08:00:00Z,28.8850,-90.0250,10.0,9.0,-9999.0,12.0,'11111222,99999999,11111222' 
LOOP,urn:ioos:station:wmo:lopl1:1,2015-11-02T08:15:00Z,28.8850,-90.0250,10.0,9.3,267.0,11.2,'11111222,11111222,11111222' 
LOOP,urn:ioos:station:wmo:lopl1:1,2015-11-02T08:30:00Z,28.8850,-90.0250,10.0,9.0,266.0,11.0,'11111222,11111222,11111222' 
LOOP,urn:ioos:station:wmo:lopl1:1,2015-11-02T08:45:00Z,28.8850,-90.0250,10.0,8.6,-9999.0,10.0,'11111222,99999999,11111222' 
LOOP,urn:ioos:station:wmo:lopl1:1,2015-11-02T09:00:00Z,28.8850,-90.0250,10.0,10.3,266.0,13.3,'11111222,11111222,11111222' 
LOOP,urn:ioos:station:wmo:lopl1:1,2015-11-02T09:15:00Z,28.8850,-90.0250,10.0,12.4,269.0,15.2,'11111222,11111222,11111222' 
LOOP,urn:ioos:station:wmo:lopl1:1,2015-11-02T09:30:00Z,28.8850,-90.0250,10.0,14.2,267.0,16.4,'11111222,11111222,11111222' 
LOOP,urn:ioos:station:wmo:lopl1:1,2015-11-02T09:45:00Z,28.8850,-90.0250,10.0,13.4,273.0,15.0,'11111222,11111222,11111222' 
LOOP,urn:ioos:station:wmo:lopl1:1,2015-11-02T10:00:00Z,28.8850,-90.0250,10.0,14.7,273.0,16.1,'11111222,11111222,11111222' 
LOOP,urn:ioos:station:wmo:lopl1:1,2015-11-02T10:15:00Z,28.8850,-90.0250,10.0,13.8,279.0,15.4,'11111222,11111222,11111222' 
LOOP,urn:ioos:station:wmo:lopl1:1,2015-11-02T10:30:00Z,28.8850,-90.0250,10.0,11.9,279.0,13.3,'11111222,11111222,11111222' 
LOOP,urn:ioos:station:wmo:lopl1:1,2015-11-02T10:45:00Z,28.8850,-90.0250,10.0,11.8,274.0,15.2,'11111222,11111222,11111222' 
LOOP,urn:ioos:station:wmo:lopl1:1,2015-11-02T11:00:00Z,28.8850,-90.0250,10.0,12.1,282.0,13.6,'11111222,11111222,11111222' 
LOOP,urn:ioos:station:wmo:lopl1:1,2015-11-02T11:15:00Z,28.8850,-90.0250,10.0,11.8,280.0,14.7,'11111222,11111222,11111222' 
LOOP,urn:ioos:station:wmo:lopl1:1,2015-11-02T11:30:00Z,28.8850,-90.0250,10.0,10.9,282.0,13.7,'11111222,11111222,11111222' 
LOOP,urn:ioos:station:wmo:lopl1:1,2015-11-02T11:45:00Z,28.8850,-90.0250,10.0,10.4,284.0,13.2,'11111222,11111222,11111222' 
LOOP,urn:ioos:station:wmo:lopl1:1,2015-11-02T12:05:00Z,28.8850,-90.0250,10.0,9.9,287.0,11.0,'11111222,11111222,11111222' 
LOOP,urn:ioos:station:wmo:lopl1:1,2015-11-02T12:20:00Z,28.8850,-90.0250,10.0,9.7,286.0,11.2,'11111222,11111222,11111222' 
LOOP,urn:ioos:station:wmo:lopl1:1,2015-11-02T12:35:00Z,28.8850,-90.0250,10.0,7.8,286.0,9.6,'11111222,11111222,11111222' 
LOOP,urn:ioos:station:wmo:lopl1:1,2015-11-02T12:50:00Z,28.8850,-90.0250,10.0,6.6,286.0,8.1,'11111222,11111222,11111222' 
LOOP,urn:ioos:station:wmo:lopl1:1,2015-11-02T13:05:00Z,28.8850,-90.0250,10.0,5.7,291.0,7.5,'11111222,11111222,11111222' 
LOOP,urn:ioos:station:wmo:lopl1:1,2015-11-02T13:20:00Z,28.8850,-90.0250,10.0,4.8,288.0,6.1,'11111222,11111222,11111222' 
LOOP,urn:ioos:station:wmo:lopl1:1,2015-11-02T13:35:00Z,28.8850,-90.0250,10.0,5.7,302.0,7.1,'11111222,11111222,11111222' 
LOOP,urn:ioos:station:wmo:lopl1:1,2015-11-02T13:50:00Z,28.8850,-90.0250,10.0,7.8,293.0,9.4,'11111222,11111222,11111222' 
LOOP,urn:ioos:station:wmo:lopl1:1,2015-11-02T14:00:00Z,28.8850,-90.0250,10.0,7.4,297.0,9.6,'11111222,11111222,11111222' 
LOOP,urn:ioos:station:wmo:lopl1:1,2015-11-02T14:15:00Z,28.8850,-90.0250,10.0,6.9,302.0,8.5,'11111222,11111222,11111222' 
LOOP,urn:ioos:station:wmo:lopl1:1,2015-11-02T14:30:00Z,28.8850,-90.0250,10.0,8.1,293.0,9.5,'11111222,11111222,11111222' 
LOOP,urn:ioos:station:wmo:lopl1:1,2015-11-02T14:45:00Z,28.8850,-90.0250,10.0,6.9,293.0,8.6,'11111222,11111222,11111222' 
LOOP,urn:ioos:station:wmo:lopl1:1,2015-11-02T15:00:00Z,28.8850,-90.0250,10.0,6.3,301.0,7.6,'11111222,11111222,11111222' 
LOOP,urn:ioos:station:wmo:lopl1:1,2015-11-02T15:15:00Z,28.8850,-90.0250,10.0,5.4,292.0,6.5,'11111222,11111222,11111222' 
LOOP,urn:ioos:station:wmo:lopl1:1,2015-11-02T15:30:00Z,28.8850,-90.0250,10.0,5.0,302.0,6.2,'11111222,11111222,11111222' 
LOOP,urn:ioos:station:wmo:lopl1:1,2015-11-02T15:45:00Z,28.8850,-90.0250,10.0,5.5,286.0,7.3,'11111222,11111222,11111222' 
LOOP,urn:ioos:station:wmo:lopl1:1,2015-11-02T16:00:00Z,28.8850,-90.0250,10.0,6.4,285.0,8.1,'11111222,11111222,11111222' 
LOOP,urn:ioos:station:wmo:lopl1:1,2015-11-02T16:15:00Z,28.8850,-90.0250,10.0,6.1,292.0,7.6,'11111222,11111222,11111222' 
LOOP,urn:ioos:station:wmo:lopl1:1,2015-11-02T16:30:00Z,28.8850,-90.0250,10.0,6.6,292.0,9.4,'11111222,11111222,11111222' 
LOOP,urn:ioos:station:wmo:lopl1:1,2015-11-02T16:45:00Z,28.8850,-90.0250,10.0,7.3,300.0,9.2,'11111222,11111222,11111222' 
LOOP,urn:ioos:station:wmo:lopl1:1,2015-11-02T17:00:00Z,28.8850,-90.0250,10.0,7.5,295.0,9.0,'11111222,11111222,11111222' 
LOOP,urn:ioos:station:wmo:lopl1:1,2015-11-02T17:15:00Z,28.8850,-90.0250,10.0,7.4,298.0,9.0,'11111222,11111222,11111222' 
LOOP,urn:ioos:station:wmo:lopl1:1,2015-11-02T17:30:00Z,28.8850,-90.0250,10.0,7.5,294.0,8.9,'11111222,11111222,11111222' 
LOOP,urn:ioos:station:wmo:lopl1:1,2015-11-02T17:45:00Z,28.8850,-90.0250,10.0,9.3,295.0,11.0,'11111222,11111222,11111222' 
LOOP,urn:ioos:station:wmo:lopl1:1,2015-11-02T18:00:00Z,28.8850,-90.0250,10.0,9.7,287.0,11.6,'11111222,11111222,11111222' 
LOOP,urn:ioos:station:wmo:lopl1:1,2015-11-02T18:15:00Z,28.8850,-90.0250,10.0,8.9,290.0,10.6,'11111222,11111222,11111222' 
LOOP,urn:ioos:station:wmo:lopl1:1,2015-11-02T18:45:00Z,28.8850,-90.0250,10.0,7.6,298.0,9.2,'11111222,11111222,11111222' 
LOOP,urn:ioos:station:wmo:lopl1:1,2015-11-02T19:00:00Z,28.8850,-90.0250,10.0,7.5,290.0,9.2,'11111222,11111222,11111222' 
LOOP,urn:ioos:station:wmo:lopl1:1,2015-11-02T19:15:00Z,28.8850,-90.0250,10.0,7.8,288.0,9.2,'11111222,11111222,11111222' 
LOOP,urn:ioos:station:wmo:lopl1:1,2015-11-02T19:30:00Z,28.8850,-90.0250,10.0,7.9,299.0,9.8,'11111222,11111222,11111222' 
LOOP,urn:ioos:station:wmo:lopl1:1,2015-11-02T19:45:00Z,28.8850,-90.0250,10.0,8.0,300.0,10.0,'11111222,11111222,11111222' 
LOOP,urn:ioos:station:wmo:lopl1:1,2015-11-02T20:00:00Z,28.8850,-90.0250,10.0,7.6,299.0,9.3,'11111222,11111222,11111222' 
LOOP,urn:ioos:station:wmo:lopl1:1,2015-11-02T20:15:00Z,28.8850,-90.0250,10.0,7.3,294.0,8.9,'11111222,11111222,11111222' 
LOOP,urn:ioos:station:wmo:lopl1:1,2015-11-02T20:35:00Z,28.8850,-90.0250,10.0,7.6,295.0,9.2,'11111222,11111222,11111222' 
LOOP,urn:ioos:station:wmo:lopl1:1,2015-11-02T20:50:00Z,28.8850,-90.0250,10.0,6.7,297.0,7.9,'11111222,11111222,11111222' 
LOOP,urn:ioos:station:wmo:lopl1:1,2015-11-02T21:05:00Z,28.8850,-90.0250,10.0,7.1,288.0,8.7,'11111222,11111222,11111222' 
LOOP,urn:ioos:station:wmo:lopl1:1,2015-11-02T21:20:00Z,28.8850,-90.0250,10.0,7.2,302.0,8.7,'11111222,11111222,11111222' 
LOOP,urn:ioos:station:wmo:lopl1:1,2015-11-02T21:35:00Z,28.8850,-90.0250,10.0,7.6,291.0,8.9,'11111222,11111222,11111222' 
LOOP,urn:ioos:station:wmo:lopl1:1,2015-11-02T21:50:00Z,28.8850,-90.0250,10.0,7.2,292.0,9.4,'11111222,11111222,11111222' 
LOOP,urn:ioos:station:wmo:lopl1:1,2015-11-02T22:05:00Z,28.8850,-90.0250,10.0,7.2,290.0,9.0,'11111222,11111222,11111222' 
LOOP,urn:ioos:station:wmo:lopl1:1,2015-11-02T22:20:00Z,28.8850,-90.0250,10.0,6.5,291.0,8.5,'11111222,11111222,11111222' 
LOOP,urn:ioos:station:wmo:lopl1:1,2015-11-02T22:35:00Z,28.8850,-90.0250,10.0,7.0,288.0,8.2,'11111222,11111222,11111222' 
LOOP,urn:ioos:station:wmo:lopl1:1,2015-11-02T22:50:00Z,28.8850,-90.0250,10.0,6.0,292.0,7.4,'11111222,11111222,11111222' 
LOOP,urn:ioos:station:wmo:lopl1:1,2015-11-02T23:05:00Z,28.8850,-90.0250,10.0,6.4,301.0,7.3,'11111222,11111222,11111222' 
LOOP,urn:ioos:station:wmo:lopl1:1,2015-11-02T23:30:00Z,28.8850,-90.0250,10.0,5.8,285.0,7.1,'11111222,11111222,11111222' 
LOOP,urn:ioos:station:wmo:lopl1:1,2015-11-02T23:45:00Z,28.8850,-90.0250,10.0,6.2,290.0,7.0,'11111222,11111222,11111222' 
LOOP,urn:ioos:station:wmo:lopl1:1,2015-11-03T00:05:00Z,28.8850,-90.0250,10.0,5.8,303.0,7.5,'11111222,11111222,11111222' 
LOOP,urn:ioos:station:wmo:lopl1:1,2015-11-03T00:20:00Z,28.8850,-90.0250,10.0,5.2,305.0,6.8,'11111222,11111222,11111222' 
LOOP,urn:ioos:station:wmo:lopl1:1,2015-11-03T00:35:00Z,28.8850,-90.0250,10.0,5.9,297.0,7.2,'11111222,11111222,11111222' 
LOOP,urn:ioos:station:wmo:lopl1:1,2015-11-03T00:50:00Z,28.8850,-90.0250,10.0,4.8,301.0,6.1,'11111222,11111222,11111222' 
LOOP,urn:ioos:station:wmo:lopl1:1,2015-11-03T01:05:00Z,28.8850,-90.0250,10.0,4.6,308.0,5.7,'11111222,11111222,11111222' 
LOOP,urn:ioos:station:wmo:lopl1:1,2015-11-03T01:20:00Z,28.8850,-90.0250,10.0,4.3,312.0,5.6,'11111222,11111222,11111222' 
LOOP,urn:ioos:station:wmo:lopl1:1,2015-11-03T01:35:00Z,28.8850,-90.0250,10.0,4.0,311.0,5.6,'11111222,11111222,11111222' 
LOOP,urn:ioos:station:wmo:lopl1:1,2015-11-03T01:50:00Z,28.8850,-90.0250,10.0,4.2,314.0,5.2,'11111222,11111222,11111222' 